TimePDT,TemperatureF,Dew PointF,Humidity,Sea Level PressureIn,VisibilityMPH,Wind Direction,Wind SpeedMPH,Gust SpeedMPH,PrecipitationIn,Events,Conditions,WindDirDegrees,DateUTC
12:55 AM,52.0,36.0,54,30.04,10.0,NNW,5.8,-,N/A,,Clear,340,2013-06-22 07:55:00
1:55 AM,48.0,36.0,63,30.04,10.0,Calm,Calm,-,N/A,,Clear,0,2013-06-22 08:55:00
2:55 AM,46.9,37.0,68,30.05,10.0,Calm,Calm,-,N/A,,Clear,0,2013-06-22 09:55:00
3:55 AM,45.0,37.0,74,30.05,10.0,NNE,11.5,-,N/A,,Clear,30,2013-06-22 10:55:00
4:55 AM,42.1,36.0,79,30.06,10.0,Calm,Calm,-,N/A,,Clear,0,2013-06-22 11:55:00
5:55 AM,37.0,35.1,93,30.09,10.0,ESE,3.5,-,N/A,,Clear,110,2013-06-22 12:55:00
6:55 AM,45.0,37.9,76,30.07,10.0,Calm,Calm,-,N/A,,Clear,0,2013-06-22 13:55:00
7:55 AM,52.0,39.0,61,30.05,10.0,Calm,Calm,-,N/A,,Clear,0,2013-06-22 14:55:00
8:55 AM,55.9,39.9,55,30.04,10.0,Calm,Calm,-,N/A,,Clear,0,2013-06-22 15:55:00
9:55 AM,60.1,39.0,46,30.03,10.0,Variable,3.5,-,N/A,,Clear,0,2013-06-22 16:55:00
10:55 AM,64.0,37.9,38,30.01,10.0,SE,4.6,-,N/A,,Clear,140,2013-06-22 17:55:00
11:55 AM,68.0,37.0,32,30.00,10.0,Variable,4.6,-,N/A,,Clear,0,2013-06-22 18:55:00
12:55 PM,69.1,36.0,30,29.97,10.0,Calm,Calm,-,N/A,,Clear,0,2013-06-22 19:55:00
1:55 PM,73.0,30.9,21,29.95,10.0,Calm,Calm,-,N/A,,Clear,0,2013-06-22 20:55:00
2:55 PM,75.9,34.0,22,29.92,10.0,Variable,6.9,-,N/A,,Clear,0,2013-06-22 21:55:00
3:55 PM,77.0,36.0,23,29.90,10.0,Variable,3.5,-,N/A,,Clear,0,2013-06-22 22:55:00
4:55 PM,78.1,34.0,20,29.88,10.0,WNW,9.2,-,N/A,,Clear,300,2013-06-22 23:55:00
5:55 PM,77.0,32.0,19,29.87,10.0,Calm,Calm,-,N/A,,Clear,0,2013-06-23 00:55:00
6:55 PM,78.1,28.9,17,29.85,10.0,WNW,12.7,-,N/A,,Clear,290,2013-06-23 01:55:00
7:55 PM,73.0,36.0,26,29.85,10.0,NNW,9.2,-,N/A,,Clear,330,2013-06-23 02:55:00
8:55 PM,66.9,37.9,34,29.85,10.0,NNW,5.8,-,N/A,,Clear,340,2013-06-23 03:55:00
9:55 PM,63.0,37.0,38,29.86,10.0,Calm,Calm,-,N/A,,Clear,0,2013-06-23 04:55:00
10:55 PM,61.0,37.0,41,29.87,10.0,South,3.5,-,N/A,,Clear,190,2013-06-23 05:55:00
11:55 PM,55.0,39.0,55,29.86,10.0,West,6.9,-,N/A,,Clear,260,2013-06-23 06:55:00